{"data":{"norad_id":64827,"intl_designator":"2025-151M","name":"KUIPER-00080","alt_names":[],"object_type":"PAYLOAD","status":"ACTIVE","operator":null,"country":"US","launch_date":"2025-07-16","launch_site_code":"AFETR","launch_vehicle":null,"mission":null,"orbit_class":"UNKNOWN","rcs_meters":null,"size_class":null,"mass_kg":null,"dimensions":null,"purposes":[],"wikipedia_slug":null,"has_3d_model":false,"image_url":null,"decayed_at":null,"tle_current":{"epoch":"2026-09-21T10:15:58.622976Z","epoch_age_seconds":94377,"freshness":"FRESH","line1":"1 64827U 25151M   26264.42776184  .00001331  00000+0  20352-3 0  9992","line2":"2 64827  51.9003 155.0076 0000750  86.4280 273.6768 14.79933943 64293","mean_motion":14.79933943,"eccentricity":7.5e-5,"inclination_deg":51.9003,"raan_deg":155.0076,"arg_perigee_deg":86.428,"mean_anomaly_deg":273.6768,"bstar":0.00020352,"rev_number":6429,"period_min":97.301640171922,"perigee_km":629.00707713532,"apogee_km":630.05822758318,"semimajor_km":7007.6696523592,"source":"CELESTRAK","updated_at":"2026-09-22T09:00:29.976214Z"}}}